Location: Unspecified
(48.5670°N, 0.0000°E)
Time: 15:54:32
(UTC+00:00)

Altair - Pass Details

Date: 02 September 2019
Orbit: 1501 x 1683 km, 47.2° (Epoch: 14 September)

Event Time Altitude Azimuth Distance (km) Brightness Sun altitude
Exits shadow 22:30:34 13° 87° (E) 3,656 9.2 -30.4°
Drops below altitude 10° 22:31:31 10° 83° (E) 3,863 9.4 -30.4°
Sets 22:35:21 0° 71° (ENE) 4,823 10.1 -30.7°
